FAB2802 SBAN-SBCC

Flight info

Callsign FAB2802
Flight time 2h 7m
Altitude FL200
Route SBAN MILIX PAPES EGOLA UTPOM SINUK MUKSA SBCC
Aircraft C295/M-VD/A

Departure

Time 2026-05-07 14:25
Airport Anápolis Airbase (SBAN)

Arrival

Time 2026-05-07 16:33
Airport Campo de Provas Brigadeiro Veloso (SBCC)
Time Latitude Longitude Altitude Speed Heading
2026-05-07 14:19 -16.23527 -48.96608 3740 ft 0 kts 309°
2026-05-07 14:22 -16.23527 -48.96634 3740 ft 16 kts 232°
2026-05-07 14:22 -16.23686 -48.96776 3740 ft 37 kts 218°
2026-05-07 14:22 -16.23888 -48.96944 3740 ft 35 kts 219°
2026-05-07 14:23 -16.24028 -48.97073 3740 ft 16 kts 265°
2026-05-07 14:23 -16.23949 -48.97175 3740 ft 26 kts 310°
2026-05-07 14:23 -16.23877 -48.97264 3740 ft 0 kts 309°
2026-05-07 14:24 -16.23859 -48.97288 3740 ft 12 kts 310°
2026-05-07 14:24 -16.23801 -48.97293 3740 ft 14 kts 35°
2026-05-07 14:24 -16.23794 -48.97287 3740 ft 0 kts 37°
2026-05-07 14:24 -16.23643 -48.97164 3740 ft 99 kts 38°
2026-05-07 14:25 -16.22807 -48.96476 3923 ft 184 kts 38°
2026-05-07 14:25 -16.21685 -48.95520 4187 ft 218 kts 39°
2026-05-07 14:25 -16.20529 -48.94474 4566 ft 224 kts 39°
2026-05-07 14:25 -16.19371 -48.93376 4943 ft 228 kts 40°
2026-05-07 14:26 -16.18202 -48.92251 5319 ft 230 kts 40°
2026-05-07 14:26 -16.17033 -48.91102 5697 ft 233 kts 41°
2026-05-07 14:26 -16.15671 -48.90246 6056 ft 230 kts 15°
2026-05-07 14:26 -16.14092 -48.90103 6455 ft 229 kts 355°
2026-05-07 14:27 -16.12518 -48.90291 6844 ft 227 kts 347°
2026-05-07 14:27 -16.10971 -48.90570 7218 ft 225 kts 345°
2026-05-07 14:27 -16.09433 -48.90870 7591 ft 225 kts 345°
2026-05-07 14:27 -16.07898 -48.91168 7966 ft 225 kts 345°
2026-05-07 14:28 -16.06359 -48.91457 8340 ft 225 kts 346°
2026-05-07 14:28 -16.04805 -48.91684 8715 ft 227 kts 349°
2026-05-07 14:28 -16.03221 -48.91787 9090 ft 230 kts 354°
2026-05-07 14:28 -16.01616 -48.91765 9466 ft 232 kts 357°
2026-05-07 14:29 -15.99999 -48.91641 9841 ft 235 kts
2026-05-07 14:29 -15.98502 -48.91461 10188 ft 237 kts
2026-05-07 14:29 -15.97204 -48.91268 10486 ft 238 kts
2026-05-07 14:29 -15.95571 -48.90990 10861 ft 239 kts
2026-05-07 14:30 -15.93930 -48.90685 11237 ft 241 kts
2026-05-07 14:30 -15.92282 -48.90360 11611 ft 242 kts
2026-05-07 14:30 -15.90627 -48.90023 11986 ft 244 kts
2026-05-07 14:30 -15.88947 -48.89676 12365 ft 251 kts
2026-05-07 14:31 -15.87210 -48.89313 12747 ft 259 kts
2026-05-07 14:31 -15.85430 -48.88939 13127 ft 264 kts
2026-05-07 14:31 -15.83622 -48.88554 13503 ft 268 kts
2026-05-07 14:31 -15.81787 -48.88161 13880 ft 272 kts
2026-05-07 14:32 -15.79927 -48.87762 14258 ft 274 kts
2026-05-07 14:32 -15.78054 -48.87359 14634 ft 277 kts
2026-05-07 14:32 -15.76166 -48.86952 15009 ft 279 kts
2026-05-07 14:32 -15.74269 -48.86544 15384 ft 280 kts
2026-05-07 14:33 -15.72355 -48.86131 15760 ft 282 kts
2026-05-07 14:33 -15.70430 -48.85717 16135 ft 284 kts
2026-05-07 14:33 -15.68494 -48.85300 16510 ft 286 kts
2026-05-07 14:33 -15.66544 -48.84881 16885 ft 288 kts
2026-05-07 14:34 -15.64584 -48.84460 17261 ft 289 kts
2026-05-07 14:34 -15.62613 -48.84036 17637 ft 290 kts
2026-05-07 14:34 -15.60637 -48.83612 18012 ft 291 kts
2026-05-07 14:34 -15.58649 -48.83184 18387 ft 293 kts
2026-05-07 14:35 -15.56651 -48.82755 18762 ft 295 kts
2026-05-07 14:35 -15.54637 -48.82323 19137 ft 297 kts
2026-05-07 14:35 -15.52609 -48.81888 19421 ft 302 kts
2026-05-07 14:35 -15.50535 -48.81445 19540 ft 307 kts
2026-05-07 14:36 -15.48442 -48.80997 19589 ft 309 kts
2026-05-07 14:36 -15.46337 -48.80545 19595 ft 310 kts
2026-05-07 14:36 -15.44225 -48.80094 19595 ft 312 kts
2026-05-07 14:36 -15.42095 -48.79639 19595 ft 314 kts
2026-05-07 14:37 -15.39957 -48.79180 19595 ft 315 kts
2026-05-07 14:37 -15.35658 -48.78584 19589 ft 309 kts 350°
2026-05-07 14:37 -15.33652 -48.79273 19594 ft 305 kts 329°
2026-05-07 14:38 -15.31942 -48.80557 19600 ft 304 kts 317°
2026-05-07 14:38 -15.30450 -48.82100 19598 ft 304 kts 311°
2026-05-07 14:38 -15.29077 -48.83765 19596 ft 304 kts 309°
2026-05-07 14:38 -15.27773 -48.85481 19595 ft 304 kts 307°
2026-05-07 14:39 -15.26501 -48.87225 19594 ft 304 kts 306°
2026-05-07 14:39 -15.25245 -48.88978 19594 ft 304 kts 306°
2026-05-07 14:39 -15.23997 -48.90733 19594 ft 304 kts 306°
2026-05-07 14:39 -15.22749 -48.92492 19594 ft 304 kts 306°
2026-05-07 14:40 -15.21502 -48.94251 19594 ft 304 kts 306°
2026-05-07 14:40 -15.20254 -48.96008 19594 ft 304 kts 306°
2026-05-07 14:40 -15.19004 -48.97765 19594 ft 304 kts 306°
2026-05-07 14:40 -15.17755 -48.99520 19594 ft 304 kts 306°
2026-05-07 14:41 -15.16504 -49.01273 19594 ft 304 kts 306°
2026-05-07 14:41 -15.15250 -49.03028 19594 ft 304 kts 306°
2026-05-07 14:41 -15.13997 -49.04782 19594 ft 304 kts 306°
2026-05-07 14:41 -15.12744 -49.06535 19594 ft 304 kts 306°
2026-05-07 14:42 -15.11489 -49.08289 19594 ft 304 kts 306°
2026-05-07 14:42 -15.10235 -49.10041 19594 ft 304 kts 306°
2026-05-07 14:42 -15.08980 -49.11794 19594 ft 304 kts 306°
2026-05-07 14:42 -15.07726 -49.13547 19594 ft 304 kts 306°
2026-05-07 14:43 -15.06471 -49.15299 19594 ft 304 kts 306°
2026-05-07 14:43 -15.05216 -49.17049 19594 ft 304 kts 306°
2026-05-07 14:43 -15.03960 -49.18802 19594 ft 304 kts 306°
2026-05-07 14:43 -15.02705 -49.20551 19594 ft 304 kts 306°
2026-05-07 14:44 -15.01449 -49.22302 19594 ft 304 kts 306°
2026-05-07 14:44 -15.00193 -49.24052 19594 ft 304 kts 306°
2026-05-07 14:44 -14.98937 -49.25801 19594 ft 304 kts 306°
2026-05-07 14:44 -14.97680 -49.27550 19594 ft 304 kts 306°
2026-05-07 14:45 -14.96424 -49.29299 19594 ft 304 kts 306°
2026-05-07 14:45 -14.95166 -49.31050 19594 ft 304 kts 306°
2026-05-07 14:45 -14.93909 -49.32800 19594 ft 304 kts 306°
2026-05-07 14:45 -14.92652 -49.34551 19594 ft 304 kts 306°
2026-05-07 14:46 -14.91395 -49.36300 19594 ft 304 kts 306°
2026-05-07 14:46 -14.90138 -49.38049 19594 ft 304 kts 306°
2026-05-07 14:46 -14.88881 -49.39799 19594 ft 304 kts 306°
2026-05-07 14:46 -14.87625 -49.41546 19594 ft 304 kts 306°
2026-05-07 14:47 -14.86367 -49.43295 19594 ft 304 kts 306°
2026-05-07 14:47 -14.85109 -49.45041 19594 ft 304 kts 306°
2026-05-07 14:47 -14.83849 -49.46790 19594 ft 304 kts 306°
2026-05-07 14:47 -14.82590 -49.48538 19594 ft 304 kts 306°
2026-05-07 14:48 -14.81331 -49.50286 19594 ft 304 kts 306°
2026-05-07 14:48 -14.80073 -49.52034 19594 ft 304 kts 306°
2026-05-07 14:48 -14.78813 -49.53783 19594 ft 304 kts 306°
2026-05-07 14:48 -14.77554 -49.55531 19594 ft 304 kts 306°
2026-05-07 14:49 -14.76294 -49.57281 19594 ft 304 kts 306°
2026-05-07 14:49 -14.75034 -49.59029 19594 ft 304 kts 306°
2026-05-07 14:49 -14.73775 -49.60777 19594 ft 304 kts 306°
2026-05-07 14:49 -14.72515 -49.62524 19594 ft 304 kts 306°
2026-05-07 14:50 -14.71255 -49.64272 19594 ft 304 kts 306°
2026-05-07 14:50 -14.69995 -49.66018 19594 ft 304 kts 306°
2026-05-07 14:50 -14.68737 -49.67762 19594 ft 304 kts 306°
2026-05-07 14:50 -14.67476 -49.69510 19594 ft 304 kts 306°
2026-05-07 14:51 -14.66217 -49.71253 19594 ft 304 kts 306°
2026-05-07 14:51 -14.64957 -49.72998 19594 ft 304 kts 306°
2026-05-07 14:51 -14.63697 -49.74743 19594 ft 304 kts 306°
2026-05-07 14:51 -14.62437 -49.76487 19594 ft 304 kts 306°
2026-05-07 14:52 -14.61176 -49.78232 19594 ft 304 kts 306°
2026-05-07 14:52 -14.59917 -49.79974 19594 ft 304 kts 306°
2026-05-07 14:52 -14.58657 -49.81717 19594 ft 304 kts 306°
2026-05-07 14:52 -14.57396 -49.83462 19594 ft 304 kts 306°
2026-05-07 14:53 -14.56135 -49.85205 19594 ft 304 kts 306°
2026-05-07 14:53 -14.54875 -49.86947 19594 ft 304 kts 306°
2026-05-07 14:53 -14.53614 -49.88689 19594 ft 304 kts 306°
2026-05-07 14:53 -14.52354 -49.90432 19594 ft 304 kts 306°
2026-05-07 14:54 -14.51093 -49.92175 19594 ft 304 kts 306°
2026-05-07 14:54 -14.49831 -49.93917 19594 ft 304 kts 306°
2026-05-07 14:54 -14.48568 -49.95659 19594 ft 304 kts 306°
2026-05-07 14:54 -14.47305 -49.97400 19594 ft 304 kts 306°
2026-05-07 14:55 -14.46041 -49.99141 19594 ft 304 kts 306°
2026-05-07 14:55 -14.44779 -50.00880 19594 ft 304 kts 306°
2026-05-07 14:55 -14.43515 -50.02621 19594 ft 304 kts 307°
2026-05-07 14:55 -14.42253 -50.04360 19594 ft 304 kts 307°
2026-05-07 14:56 -14.40989 -50.06099 19594 ft 303 kts 307°
2026-05-07 14:56 -14.39727 -50.07836 19594 ft 303 kts 307°
2026-05-07 14:56 -14.38463 -50.09574 19594 ft 303 kts 306°
2026-05-07 14:56 -14.37199 -50.11312 19594 ft 303 kts 306°
2026-05-07 14:57 -14.35935 -50.13048 19594 ft 304 kts 306°
2026-05-07 14:57 -14.34669 -50.14788 19594 ft 304 kts 306°
2026-05-07 14:57 -14.33404 -50.16525 19594 ft 304 kts 306°
2026-05-07 14:57 -14.32138 -50.18265 19594 ft 304 kts 306°
2026-05-07 14:58 -14.30872 -50.20005 19594 ft 304 kts 306°
2026-05-07 14:58 -14.29609 -50.21745 19594 ft 304 kts 306°
2026-05-07 14:58 -14.28344 -50.23488 19594 ft 304 kts 306°
2026-05-07 14:58 -14.27080 -50.25227 19594 ft 304 kts 306°
2026-05-07 14:59 -14.25817 -50.26966 19594 ft 304 kts 306°
2026-05-07 14:59 -14.24550 -50.28706 19594 ft 304 kts 306°
2026-05-07 14:59 -14.23285 -50.30441 19594 ft 304 kts 307°
2026-05-07 14:59 -14.22018 -50.32179 19594 ft 304 kts 307°
2026-05-07 15:00 -14.20752 -50.33914 19594 ft 304 kts 307°
2026-05-07 15:00 -14.19487 -50.35649 19594 ft 304 kts 307°
2026-05-07 15:00 -14.18221 -50.37384 19594 ft 303 kts 307°
2026-05-07 15:00 -14.16953 -50.39119 19594 ft 303 kts 307°
2026-05-07 15:01 -14.15687 -50.40852 19594 ft 303 kts 307°
2026-05-07 15:01 -14.14421 -50.42586 19594 ft 303 kts 307°
2026-05-07 15:01 -14.13154 -50.44321 19594 ft 303 kts 307°
2026-05-07 15:01 -14.11888 -50.46054 19594 ft 303 kts 306°
2026-05-07 15:02 -14.10622 -50.47788 19594 ft 303 kts 306°
2026-05-07 15:02 -14.09355 -50.49523 19594 ft 304 kts 306°
2026-05-07 15:02 -14.08088 -50.51255 19594 ft 304 kts 306°
2026-05-07 15:02 -14.06821 -50.52990 19594 ft 304 kts 306°
2026-05-07 15:03 -14.05553 -50.54725 19594 ft 304 kts 306°
2026-05-07 15:03 -14.04283 -50.56463 19594 ft 304 kts 306°
2026-05-07 15:03 -14.03015 -50.58198 19594 ft 304 kts 306°
2026-05-07 15:03 -14.01747 -50.59932 19594 ft 304 kts 306°
2026-05-07 15:04 -14.00479 -50.61666 19594 ft 304 kts 306°
2026-05-07 15:04 -13.99210 -50.63401 19594 ft 304 kts 306°
2026-05-07 15:04 -13.97942 -50.65136 19594 ft 304 kts 306°
2026-05-07 15:04 -13.96674 -50.66870 19594 ft 304 kts 306°
2026-05-07 15:05 -13.95404 -50.68605 19594 ft 304 kts 306°
2026-05-07 15:05 -13.94137 -50.70337 19594 ft 304 kts 306°
2026-05-07 15:05 -13.92868 -50.72070 19594 ft 304 kts 306°
2026-05-07 15:05 -13.91600 -50.73802 19594 ft 304 kts 307°
2026-05-07 15:06 -13.90332 -50.75534 19594 ft 304 kts 307°
2026-05-07 15:06 -13.89065 -50.77265 19594 ft 304 kts 307°
2026-05-07 15:06 -13.87796 -50.78997 19594 ft 304 kts 307°
2026-05-07 15:06 -13.86526 -50.80729 19594 ft 304 kts 307°
2026-05-07 15:07 -13.85256 -50.82461 19594 ft 304 kts 307°
2026-05-07 15:07 -13.83987 -50.84191 19594 ft 304 kts 307°
2026-05-07 15:07 -13.82715 -50.85923 19594 ft 304 kts 307°
2026-05-07 15:07 -13.81442 -50.87658 19594 ft 305 kts 307°
2026-05-07 15:08 -13.80167 -50.89394 19594 ft 305 kts 307°
2026-05-07 15:08 -13.78892 -50.91131 19594 ft 305 kts 307°
2026-05-07 15:08 -13.77615 -50.92871 19594 ft 305 kts 307°
2026-05-07 15:08 -13.76338 -50.94610 19594 ft 305 kts 307°
2026-05-07 15:09 -13.75060 -50.96350 19594 ft 305 kts 307°
2026-05-07 15:09 -13.73784 -50.98087 19594 ft 305 kts 307°
2026-05-07 15:09 -13.72505 -50.99828 19594 ft 305 kts 307°
2026-05-07 15:09 -13.71228 -51.01566 19594 ft 305 kts 307°
2026-05-07 15:10 -13.69949 -51.03307 19594 ft 306 kts 307°
2026-05-07 15:10 -13.68670 -51.05046 19594 ft 306 kts 307°
2026-05-07 15:10 -13.67391 -51.06786 19594 ft 306 kts 307°
2026-05-07 15:10 -13.66112 -51.08526 19594 ft 306 kts 307°
2026-05-07 15:11 -13.64832 -51.10265 19594 ft 306 kts 307°
2026-05-07 15:11 -13.63553 -51.12005 19594 ft 306 kts 307°
2026-05-07 15:11 -13.62273 -51.13744 19594 ft 306 kts 307°
2026-05-07 15:11 -13.60993 -51.15483 19594 ft 306 kts 307°
2026-05-07 15:12 -13.59714 -51.17221 19594 ft 306 kts 307°
2026-05-07 15:12 -13.58435 -51.18958 19594 ft 306 kts 307°
2026-05-07 15:12 -13.57156 -51.20698 19594 ft 306 kts 307°
2026-05-07 15:12 -13.55876 -51.22436 19594 ft 305 kts 307°
2026-05-07 15:13 -13.54597 -51.24173 19594 ft 305 kts 307°
2026-05-07 15:13 -13.53317 -51.25909 19594 ft 305 kts 307°
2026-05-07 15:13 -13.52036 -51.27644 19594 ft 305 kts 307°
2026-05-07 15:13 -13.50756 -51.29380 19594 ft 305 kts 307°
2026-05-07 15:14 -13.49474 -51.31116 19594 ft 306 kts 306°
2026-05-07 15:14 -13.48193 -51.32853 19594 ft 306 kts 306°
2026-05-07 15:14 -13.46911 -51.34590 19594 ft 306 kts 306°
2026-05-07 15:14 -13.45630 -51.36327 19594 ft 306 kts 306°
2026-05-07 15:15 -13.44348 -51.38065 19594 ft 306 kts 306°
2026-05-07 15:15 -13.43066 -51.39803 19594 ft 306 kts 306°
2026-05-07 15:15 -13.41785 -51.41540 19594 ft 306 kts 306°
2026-05-07 15:15 -13.40504 -51.43277 19594 ft 306 kts 306°
2026-05-07 15:16 -13.39223 -51.45012 19594 ft 306 kts 307°
2026-05-07 15:16 -13.37942 -51.46747 19594 ft 306 kts 307°
2026-05-07 15:16 -13.36659 -51.48484 19594 ft 305 kts 307°
2026-05-07 15:16 -13.35379 -51.50216 19594 ft 305 kts 307°
2026-05-07 15:17 -13.34099 -51.51949 19594 ft 305 kts 307°
2026-05-07 15:17 -13.32817 -51.53683 19594 ft 305 kts 307°
2026-05-07 15:17 -13.31535 -51.55418 19594 ft 305 kts 307°
2026-05-07 15:17 -13.30255 -51.57150 19594 ft 305 kts 307°
2026-05-07 15:18 -13.28976 -51.58879 19594 ft 305 kts 307°
2026-05-07 15:18 -13.27694 -51.60610 19594 ft 305 kts 307°
2026-05-07 15:18 -13.26413 -51.62339 19594 ft 305 kts 307°
2026-05-07 15:18 -13.25132 -51.64069 19594 ft 305 kts 307°
2026-05-07 15:19 -13.23853 -51.65798 19594 ft 305 kts 307°
2026-05-07 15:19 -13.22573 -51.67529 19594 ft 305 kts 307°
2026-05-07 15:19 -13.21294 -51.69257 19594 ft 305 kts 307°
2026-05-07 15:19 -13.20012 -51.70987 19594 ft 305 kts 307°
2026-05-07 15:20 -13.18731 -51.72716 19594 ft 305 kts 307°
2026-05-07 15:20 -13.17450 -51.74444 19594 ft 305 kts 307°
2026-05-07 15:20 -13.16171 -51.76170 19594 ft 304 kts 307°
2026-05-07 15:20 -13.14892 -51.77896 19594 ft 304 kts 307°
2026-05-07 15:21 -13.13615 -51.79619 19594 ft 304 kts 307°
2026-05-07 15:21 -13.12335 -51.81342 19594 ft 304 kts 307°
2026-05-07 15:21 -13.11051 -51.83060 19594 ft 304 kts 307°
2026-05-07 15:21 -13.09765 -51.84774 19594 ft 304 kts 307°
2026-05-07 15:22 -13.08477 -51.86485 19594 ft 304 kts 307°
2026-05-07 15:22 -13.07188 -51.88197 19594 ft 304 kts 307°
2026-05-07 15:22 -13.05899 -51.89906 19594 ft 304 kts 307°
2026-05-07 15:22 -13.04609 -51.91615 19594 ft 304 kts 307°
2026-05-07 15:23 -13.03318 -51.93325 19594 ft 304 kts 307°
2026-05-07 15:23 -13.02029 -51.95034 19594 ft 304 kts 308°
2026-05-07 15:23 -13.00739 -51.96743 19594 ft 304 kts 308°
2026-05-07 15:23 -12.99450 -51.98449 19594 ft 304 kts 308°
2026-05-07 15:24 -12.98159 -52.00157 19594 ft 304 kts 308°
2026-05-07 15:24 -12.96867 -52.01864 19594 ft 304 kts 308°
2026-05-07 15:24 -12.95576 -52.03570 19594 ft 303 kts 308°
2026-05-07 15:24 -12.94286 -52.05274 19594 ft 303 kts 307°
2026-05-07 15:25 -12.92993 -52.06982 19594 ft 303 kts 307°
2026-05-07 15:25 -12.91702 -52.08687 19594 ft 303 kts 307°
2026-05-07 15:25 -12.90411 -52.10393 19594 ft 303 kts 307°
2026-05-07 15:25 -12.89120 -52.12098 19594 ft 303 kts 307°
2026-05-07 15:26 -12.87829 -52.13803 19594 ft 303 kts 307°
2026-05-07 15:26 -12.86537 -52.15509 19594 ft 304 kts 307°
2026-05-07 15:26 -12.85246 -52.17215 19594 ft 304 kts 307°
2026-05-07 15:26 -12.83952 -52.18923 19594 ft 304 kts 307°
2026-05-07 15:27 -12.82661 -52.20627 19594 ft 304 kts 307°
2026-05-07 15:27 -12.81368 -52.22331 19594 ft 304 kts 307°
2026-05-07 15:27 -12.80075 -52.24037 19594 ft 304 kts 307°
2026-05-07 15:27 -12.78782 -52.25742 19594 ft 304 kts 307°
2026-05-07 15:28 -12.77488 -52.27449 19594 ft 304 kts 307°
2026-05-07 15:28 -12.76195 -52.29155 19594 ft 304 kts 307°
2026-05-07 15:28 -12.74902 -52.30862 19594 ft 304 kts 307°
2026-05-07 15:28 -12.73609 -52.32567 19594 ft 304 kts 307°
2026-05-07 15:29 -12.72315 -52.34271 19594 ft 304 kts 307°
2026-05-07 15:29 -12.71020 -52.35976 19594 ft 304 kts 307°
2026-05-07 15:29 -12.69726 -52.37680 19594 ft 304 kts 307°
2026-05-07 15:29 -12.68430 -52.39386 19594 ft 304 kts 307°
2026-05-07 15:30 -12.67135 -52.41091 19594 ft 304 kts 307°
2026-05-07 15:30 -12.65840 -52.42797 19594 ft 304 kts 307°
2026-05-07 15:30 -12.64545 -52.44502 19594 ft 304 kts 307°
2026-05-07 15:30 -12.63250 -52.46208 19594 ft 304 kts 307°
2026-05-07 15:31 -12.61956 -52.47911 19594 ft 304 kts 307°
2026-05-07 15:31 -12.60660 -52.49616 19594 ft 304 kts 307°
2026-05-07 15:31 -12.59365 -52.51320 19594 ft 304 kts 307°
2026-05-07 15:31 -12.58070 -52.53024 19594 ft 304 kts 307°
2026-05-07 15:32 -12.56775 -52.54727 19594 ft 304 kts 307°
2026-05-07 15:32 -12.55479 -52.56429 19594 ft 304 kts 307°
2026-05-07 15:32 -12.54185 -52.58131 19594 ft 304 kts 307°
2026-05-07 15:32 -12.52890 -52.59833 19594 ft 304 kts 307°
2026-05-07 15:33 -12.51595 -52.61534 19594 ft 304 kts 307°
2026-05-07 15:33 -12.50300 -52.63235 19594 ft 304 kts 307°
2026-05-07 15:33 -12.49004 -52.64937 19594 ft 304 kts 307°
2026-05-07 15:33 -12.47708 -52.66638 19594 ft 304 kts 307°
2026-05-07 15:34 -12.46413 -52.68339 19594 ft 304 kts 307°
2026-05-07 15:34 -12.45117 -52.70040 19594 ft 304 kts 307°
2026-05-07 15:34 -12.43822 -52.71740 19594 ft 304 kts 307°
2026-05-07 15:34 -12.42527 -52.73440 19594 ft 304 kts 307°
2026-05-07 15:35 -12.41232 -52.75140 19594 ft 304 kts 307°
2026-05-07 15:35 -12.39935 -52.76841 19594 ft 304 kts 308°
2026-05-07 15:35 -12.38641 -52.78540 19594 ft 304 kts 308°
2026-05-07 15:35 -12.37346 -52.80238 19594 ft 303 kts 308°
2026-05-07 15:36 -12.36049 -52.81939 19594 ft 303 kts 308°
2026-05-07 15:36 -12.34754 -52.83636 19594 ft 303 kts 308°
2026-05-07 15:36 -12.33458 -52.85334 19594 ft 303 kts 308°
2026-05-07 15:36 -12.32162 -52.87031 19594 ft 303 kts 307°
2026-05-07 15:37 -12.30864 -52.88729 19594 ft 303 kts 307°
2026-05-07 15:37 -12.29568 -52.90427 19594 ft 303 kts 307°
2026-05-07 15:37 -12.28272 -52.92124 19594 ft 304 kts 307°
2026-05-07 15:37 -12.26976 -52.93822 19594 ft 304 kts 307°
2026-05-07 15:38 -12.25680 -52.95521 19594 ft 304 kts 307°
2026-05-07 15:38 -12.24383 -52.97219 19594 ft 304 kts 307°
2026-05-07 15:38 -12.23086 -52.98917 19594 ft 304 kts 307°
2026-05-07 15:38 -12.21699 -53.00536 19593 ft 304 kts 314°
2026-05-07 15:39 -12.20082 -53.01930 19595 ft 305 kts 321°
2026-05-07 15:39 -12.18343 -53.03171 19595 ft 306 kts 324°
2026-05-07 15:39 -12.16537 -53.04319 19595 ft 306 kts 327°
2026-05-07 15:39 -12.14697 -53.05407 19595 ft 306 kts 328°
2026-05-07 15:40 -12.12842 -53.06456 19594 ft 306 kts 329°
2026-05-07 15:40 -12.10963 -53.07488 19594 ft 306 kts 330°
2026-05-07 15:40 -12.09086 -53.08501 19594 ft 306 kts 330°
2026-05-07 15:40 -12.07202 -53.09504 19594 ft 306 kts 330°
2026-05-07 15:41 -12.05317 -53.10500 19594 ft 306 kts 330°
2026-05-07 15:41 -12.03427 -53.11492 19594 ft 306 kts 330°
2026-05-07 15:41 -12.01535 -53.12482 19594 ft 306 kts 330°
2026-05-07 15:41 -11.99643 -53.13470 19594 ft 306 kts 330°
2026-05-07 15:42 -11.97748 -53.14458 19594 ft 306 kts 330°
2026-05-07 15:42 -11.95853 -53.15445 19594 ft 307 kts 330°
2026-05-07 15:42 -11.93957 -53.16433 19594 ft 306 kts 330°
2026-05-07 15:42 -11.92065 -53.17422 19594 ft 306 kts 331°
2026-05-07 15:43 -11.90168 -53.18409 19594 ft 306 kts 331°
2026-05-07 15:43 -11.88277 -53.19391 19594 ft 306 kts 331°
2026-05-07 15:43 -11.86384 -53.20371 19594 ft 306 kts 331°
2026-05-07 15:43 -11.84489 -53.21351 19594 ft 306 kts 331°
2026-05-07 15:44 -11.82594 -53.22332 19594 ft 306 kts 331°
2026-05-07 15:44 -11.80697 -53.23314 19594 ft 306 kts 330°
2026-05-07 15:44 -11.78802 -53.24296 19594 ft 306 kts 331°
2026-05-07 15:44 -11.76905 -53.25279 19594 ft 306 kts 331°
2026-05-07 15:45 -11.75007 -53.26262 19594 ft 306 kts 331°
2026-05-07 15:45 -11.73110 -53.27245 19594 ft 306 kts 331°
2026-05-07 15:45 -11.71214 -53.28227 19594 ft 306 kts 331°
2026-05-07 15:45 -11.69317 -53.29209 19594 ft 306 kts 331°
2026-05-07 15:46 -11.65525 -53.31171 19594 ft 307 kts 330°
2026-05-07 15:46 -11.63625 -53.32154 19594 ft 307 kts 330°
2026-05-07 15:46 -11.61725 -53.33137 19594 ft 307 kts 330°
2026-05-07 15:47 -11.59821 -53.34122 19594 ft 308 kts 330°
2026-05-07 15:47 -11.57916 -53.35108 19594 ft 308 kts 330°
2026-05-07 15:47 -11.56010 -53.36095 19594 ft 308 kts 330°
2026-05-07 15:47 -11.54105 -53.37081 19594 ft 308 kts 330°
2026-05-07 15:48 -11.52201 -53.38066 19594 ft 307 kts 330°
2026-05-07 15:48 -11.50299 -53.39050 19594 ft 307 kts 331°
2026-05-07 15:48 -11.48396 -53.40034 19594 ft 307 kts 331°
2026-05-07 15:48 -11.46496 -53.41016 19594 ft 307 kts 331°
2026-05-07 15:49 -11.44596 -53.41998 19594 ft 307 kts 331°
2026-05-07 15:49 -11.42695 -53.42980 19594 ft 307 kts 331°
2026-05-07 15:49 -11.40796 -53.43960 19594 ft 307 kts 331°
2026-05-07 15:49 -11.38898 -53.44941 19594 ft 307 kts 331°
2026-05-07 15:50 -11.37000 -53.45921 19594 ft 307 kts 331°
2026-05-07 15:50 -11.35099 -53.46903 19594 ft 307 kts 331°
2026-05-07 15:50 -11.33199 -53.47883 19594 ft 307 kts 331°
2026-05-07 15:50 -11.31300 -53.48864 19594 ft 307 kts 331°
2026-05-07 15:51 -11.29401 -53.49844 19594 ft 307 kts 331°
2026-05-07 15:51 -11.27500 -53.50825 19594 ft 307 kts 331°
2026-05-07 15:51 -11.25603 -53.51805 19594 ft 307 kts 331°
2026-05-07 15:51 -11.23702 -53.52786 19594 ft 307 kts 331°
2026-05-07 15:52 -11.21803 -53.53766 19594 ft 307 kts 331°
2026-05-07 15:52 -11.19904 -53.54745 19594 ft 306 kts 331°
2026-05-07 15:52 -11.18006 -53.55724 19594 ft 306 kts 331°
2026-05-07 15:52 -11.16109 -53.56702 19594 ft 306 kts 331°
2026-05-07 15:53 -11.14214 -53.57679 19594 ft 306 kts 331°
2026-05-07 15:53 -11.12313 -53.58659 19594 ft 306 kts 331°
2026-05-07 15:53 -11.10416 -53.59636 19594 ft 306 kts 331°
2026-05-07 15:53 -11.08519 -53.60614 19594 ft 307 kts 331°
2026-05-07 15:54 -11.06619 -53.61593 19594 ft 307 kts 331°
2026-05-07 15:54 -11.04719 -53.62572 19594 ft 307 kts 331°
2026-05-07 15:54 -11.02820 -53.63551 19594 ft 307 kts 331°
2026-05-07 15:54 -11.00920 -53.64531 19594 ft 306 kts 331°
2026-05-07 15:55 -10.99024 -53.65508 19594 ft 306 kts 331°
2026-05-07 15:55 -10.97127 -53.66484 19594 ft 306 kts 331°
2026-05-07 15:55 -10.95230 -53.67461 19594 ft 306 kts 331°
2026-05-07 15:55 -10.93332 -53.68437 19594 ft 306 kts 331°
2026-05-07 15:56 -10.91424 -53.69402 19594 ft 307 kts 332°
2026-05-07 15:56 -10.89512 -53.70348 19594 ft 307 kts 332°
2026-05-07 15:56 -10.87588 -53.71287 19594 ft 307 kts 332°
2026-05-07 15:56 -10.85663 -53.72219 19594 ft 307 kts 332°
2026-05-07 15:57 -10.83739 -53.73146 19594 ft 307 kts 332°
2026-05-07 15:57 -10.81811 -53.74072 19594 ft 307 kts 333°
2026-05-07 15:57 -10.79885 -53.74995 19594 ft 307 kts 333°
2026-05-07 15:57 -10.77960 -53.75916 19594 ft 306 kts 333°
2026-05-07 15:58 -10.76033 -53.76836 19594 ft 306 kts 333°
2026-05-07 15:58 -10.74108 -53.77756 19594 ft 306 kts 333°
2026-05-07 15:58 -10.72185 -53.78673 19594 ft 306 kts 333°
2026-05-07 15:58 -10.70261 -53.79591 19594 ft 306 kts 333°
2026-05-07 15:59 -10.68338 -53.80507 19594 ft 306 kts 333°
2026-05-07 15:59 -10.66415 -53.81424 19594 ft 306 kts 333°
2026-05-07 15:59 -10.64493 -53.82340 19594 ft 306 kts 333°
2026-05-07 15:59 -10.62570 -53.83257 19594 ft 306 kts 333°
2026-05-07 16:00 -10.60647 -53.84173 19594 ft 306 kts 333°
2026-05-07 16:00 -10.58726 -53.85088 19594 ft 306 kts 333°
2026-05-07 16:00 -10.56805 -53.86003 19594 ft 306 kts 333°
2026-05-07 16:00 -10.54883 -53.86918 19594 ft 306 kts 333°
2026-05-07 16:01 -10.52963 -53.87832 19594 ft 306 kts 333°
2026-05-07 16:01 -10.51040 -53.88747 19594 ft 306 kts 333°
2026-05-07 16:01 -10.49118 -53.89661 19594 ft 306 kts 333°
2026-05-07 16:01 -10.47193 -53.90576 19594 ft 306 kts 332°
2026-05-07 16:02 -10.45265 -53.91493 19594 ft 307 kts 332°
2026-05-07 16:02 -10.43335 -53.92411 19594 ft 307 kts 332°
2026-05-07 16:02 -10.41403 -53.93330 19594 ft 308 kts 332°
2026-05-07 16:02 -10.39468 -53.94251 19594 ft 308 kts 332°
2026-05-07 16:03 -10.37531 -53.95173 19594 ft 308 kts 332°
2026-05-07 16:03 -10.35589 -53.96097 19594 ft 309 kts 332°
2026-05-07 16:03 -10.33650 -53.97020 19594 ft 309 kts 332°
2026-05-07 16:03 -10.31711 -53.97943 19594 ft 308 kts 332°
2026-05-07 16:04 -10.29773 -53.98865 19594 ft 308 kts 332°
2026-05-07 16:04 -10.27837 -53.99785 19594 ft 308 kts 332°
2026-05-07 16:04 -10.25903 -54.00705 19594 ft 308 kts 333°
2026-05-07 16:04 -10.23969 -54.01624 19594 ft 307 kts 333°
2026-05-07 16:05 -10.22036 -54.02542 19594 ft 307 kts 333°
2026-05-07 16:05 -10.20105 -54.03459 19594 ft 307 kts 333°
2026-05-07 16:05 -10.18176 -54.04374 19594 ft 307 kts 332°
2026-05-07 16:05 -10.16245 -54.05291 19594 ft 307 kts 332°
2026-05-07 16:06 -10.14313 -54.06208 19594 ft 307 kts 332°
2026-05-07 16:06 -10.12380 -54.07124 19594 ft 308 kts 332°
2026-05-07 16:06 -10.10443 -54.08044 19594 ft 309 kts 332°
2026-05-07 16:06 -10.08504 -54.08965 19594 ft 309 kts 332°
2026-05-07 16:07 -10.06558 -54.09890 19594 ft 309 kts 332°
2026-05-07 16:07 -10.04619 -54.10812 19594 ft 309 kts 332°
2026-05-07 16:07 -10.02678 -54.11733 19594 ft 308 kts 332°
2026-05-07 16:07 -10.00745 -54.12658 19594 ft 308 kts 331°
2026-05-07 16:08 -9.98948 -54.13816 19594 ft 306 kts 321°
2026-05-07 16:08 -9.97333 -54.15207 19596 ft 305 kts 316°
2026-05-07 16:08 -9.95835 -54.16721 19595 ft 305 kts 313°
2026-05-07 16:08 -9.94413 -54.18304 19595 ft 304 kts 311°
2026-05-07 16:09 -9.93038 -54.19925 19594 ft 304 kts 310°
2026-05-07 16:09 -9.91688 -54.21573 19594 ft 304 kts 309°
2026-05-07 16:09 -9.90359 -54.23231 19594 ft 304 kts 309°
2026-05-07 16:09 -9.89041 -54.24899 19594 ft 304 kts 309°
2026-05-07 16:10 -9.87721 -54.26584 19359 ft 309 kts 308°
2026-05-07 16:10 -9.86390 -54.28292 18916 ft 307 kts 308°
2026-05-07 16:10 -9.85108 -54.29941 18420 ft 291 kts 308°
2026-05-07 16:10 -9.83979 -54.31398 17955 ft 279 kts 308°
2026-05-07 16:11 -9.83434 -54.32103 17724 ft 274 kts 308°
2026-05-07 16:12 -9.82592 -54.33198 17359 ft 268 kts 307°
2026-05-07 16:12 -9.82008 -54.34058 17078 ft 263 kts 304°
2026-05-07 16:12 -9.80936 -54.35532 16578 ft 257 kts 308°
2026-05-07 16:13 -9.79798 -54.36897 16080 ft 252 kts 311°
2026-05-07 16:13 -9.78640 -54.38212 15579 ft 248 kts 311°
2026-05-07 16:13 -9.77494 -54.39503 15079 ft 245 kts 311°
2026-05-07 16:13 -9.76364 -54.40784 14580 ft 243 kts 310°
2026-05-07 16:14 -9.75251 -54.42061 14081 ft 241 kts 310°
2026-05-07 16:14 -9.74155 -54.43338 13581 ft 240 kts 310°
2026-05-07 16:14 -9.73070 -54.44608 13082 ft 238 kts 310°
2026-05-07 16:14 -9.71994 -54.45874 12583 ft 237 kts 310°
2026-05-07 16:15 -9.70925 -54.47136 12084 ft 236 kts 310°
2026-05-07 16:15 -9.69866 -54.48399 11585 ft 235 kts 309°
2026-05-07 16:15 -9.68816 -54.49662 11086 ft 234 kts 309°
2026-05-07 16:15 -9.67765 -54.50920 10586 ft 234 kts 309°
2026-05-07 16:16 -9.66717 -54.52170 10088 ft 233 kts 309°
2026-05-07 16:16 -9.65668 -54.53416 9589 ft 233 kts 309°
2026-05-07 16:16 -9.64617 -54.54657 9090 ft 232 kts 309°
2026-05-07 16:16 -9.63571 -54.55895 8591 ft 232 kts 309°
2026-05-07 16:17 -9.62527 -54.57131 8092 ft 231 kts 309°
2026-05-07 16:17 -9.61488 -54.58363 7594 ft 231 kts 309°
2026-05-07 16:17 -9.60450 -54.59597 7094 ft 230 kts 309°
2026-05-07 16:17 -9.59417 -54.60826 6596 ft 229 kts 309°
2026-05-07 16:18 -9.58385 -54.62055 6097 ft 229 kts 309°
2026-05-07 16:18 -9.57355 -54.63282 5597 ft 228 kts 309°
2026-05-07 16:18 -9.56331 -54.64501 5097 ft 228 kts 309°
2026-05-07 16:18 -9.55308 -54.65720 4597 ft 228 kts 310°
2026-05-07 16:19 -9.54276 -54.66949 4135 ft 230 kts 310°
2026-05-07 16:19 -9.53273 -54.68143 4031 ft 216 kts 310°
2026-05-07 16:19 -9.52332 -54.69261 3997 ft 202 kts 310°
2026-05-07 16:19 -9.51447 -54.70314 3993 ft 192 kts 310°
2026-05-07 16:20 -9.50575 -54.71351 4000 ft 195 kts 310°
2026-05-07 16:20 -9.49692 -54.72402 4000 ft 197 kts 310°
2026-05-07 16:20 -9.48803 -54.73461 4002 ft 198 kts 310°
2026-05-07 16:20 -9.47910 -54.74524 4001 ft 199 kts 310°
2026-05-07 16:21 -9.47015 -54.75589 3995 ft 200 kts 310°
2026-05-07 16:21 -9.46282 -54.76795 4008 ft 205 kts 291°
2026-05-07 16:21 -9.45959 -54.78163 3995 ft 198 kts 281°
2026-05-07 16:21 -9.45761 -54.79553 4002 ft 200 kts 279°
2026-05-07 16:22 -9.45562 -54.80946 4000 ft 200 kts 279°
2026-05-07 16:22 -9.45333 -54.82335 4001 ft 200 kts 281°
2026-05-07 16:22 -9.45072 -54.83720 4000 ft 201 kts 282°
2026-05-07 16:22 -9.44788 -54.85097 4001 ft 201 kts 283°
2026-05-07 16:23 -9.44487 -54.86474 3998 ft 201 kts 283°
2026-05-07 16:23 -9.44175 -54.87850 4000 ft 201 kts 284°
2026-05-07 16:23 -9.43858 -54.89222 4001 ft 201 kts 284°
2026-05-07 16:23 -9.43536 -54.90594 4000 ft 200 kts 284°
2026-05-07 16:24 -9.43213 -54.91964 4000 ft 200 kts 284°
2026-05-07 16:24 -9.42887 -54.93335 4001 ft 201 kts 284°
2026-05-07 16:24 -9.42562 -54.94704 4000 ft 201 kts 284°
2026-05-07 16:24 -9.42231 -54.96073 3999 ft 200 kts 285°
2026-05-07 16:25 -9.41872 -54.97431 4001 ft 200 kts 285°
2026-05-07 16:25 -9.41529 -54.98799 4005 ft 199 kts 285°
2026-05-07 16:25 -9.41197 -55.00144 4014 ft 198 kts 285°
2026-05-07 16:25 -9.40873 -55.01461 3997 ft 190 kts 285°
2026-05-07 16:26 -9.40559 -55.02744 3997 ft 186 kts 284°
2026-05-07 16:26 -9.40251 -55.04008 3997 ft 184 kts 284°
2026-05-07 16:26 -9.39945 -55.05257 4021 ft 179 kts 285°
2026-05-07 16:26 -9.39750 -55.06058 4072 ft 180 kts 285°
2026-05-07 16:27 -9.39349 -55.07696 4008 ft 180 kts 285°
2026-05-07 16:27 -9.39051 -55.08920 4000 ft 179 kts 285°
2026-05-07 16:27 -9.38750 -55.10154 3865 ft 181 kts 285°
2026-05-07 16:27 -9.38428 -55.11378 3738 ft 180 kts 288°
2026-05-07 16:28 -9.37657 -55.12342 3696 ft 181 kts 322°
2026-05-07 16:28 -9.36467 -55.12656 3702 ft 178 kts 356°
2026-05-07 16:28 -9.35299 -55.12456 3801 ft 173 kts
2026-05-07 16:28 -9.34161 -55.12177 3710 ft 166 kts 11°
2026-05-07 16:29 -9.33064 -55.11898 3692 ft 159 kts 11°
2026-05-07 16:29 -9.32029 -55.11546 3663 ft 160 kts 23°
2026-05-07 16:29 -9.31354 -55.10649 3694 ft 169 kts 64°
2026-05-07 16:29 -9.31104 -55.09486 3730 ft 169 kts 77°
2026-05-07 16:30 -9.31027 -55.08325 3688 ft 163 kts 90°
2026-05-07 16:30 -9.31175 -55.07237 3845 ft 154 kts 98°
2026-05-07 16:30 -9.31377 -55.06175 3963 ft 155 kts 100°
2026-05-07 16:30 -9.31598 -55.05117 3944 ft 152 kts 101°
2026-05-07 16:31 -9.31819 -55.04097 3792 ft 146 kts 101°
2026-05-07 16:31 -9.32032 -55.03113 3513 ft 141 kts 101°
2026-05-07 16:31 -9.32231 -55.02159 3148 ft 137 kts 100°
2026-05-07 16:31 -9.32439 -55.01221 2745 ft 137 kts 101°
2026-05-07 16:32 -9.32616 -55.00257 2400 ft 147 kts 100°
2026-05-07 16:32 -9.32805 -54.99302 2226 ft 130 kts 101°
2026-05-07 16:32 -9.32994 -54.98428 1984 ft 123 kts 102°
2026-05-07 16:32 -9.33162 -54.97600 1777 ft 115 kts 101°
2026-05-07 16:33 -9.33284 -54.96999 1774 ft 40 kts 101°
2026-05-07 16:33 -9.33338 -54.96730 1774 ft 29 kts 101°
2026-05-07 16:33 -9.33413 -54.96623 1774 ft 15 kts 199°
2026-05-07 16:33 -9.33433 -54.96628 1774 ft 7 kts 192°
2026-05-07 16:34 -9.33549 -54.96651 1774 ft 13 kts 191°
2026-05-07 16:34 -9.33615 -54.96636 1774 ft 8 kts 116°
2026-05-07 16:34 -9.33627 -54.96594 1774 ft 2 kts 43°
2026-05-07 16:34 -9.33610 -54.96589 1774 ft 2 kts 12°
2026-05-07 16:35 -9.33609 -54.96589 1774 ft 0 kts 12°